Location: Voyageurs National Park
(48.5020°N, 92.9292°W)
Time: 13:12:51
(UTC-05:00)

PCSat - Visible Passes

Search period start: 30 October 2014 00:00
Search period end: 08 November 2014 23:00
Orbit: 786 x 796 km, 67.1° (Epoch: 29 October)

Date Brightness Start Highest point End Pass type
(mag) Time Alt. Az. Time Alt. Az. Time Alt. Az.
30 Oct 11.6 04:07:47 22° NNE 04:07:47 22° NNE 04:09:40 10° NNE visible
30 Oct 11.1 05:48:32 21° NNW 05:48:34 21° NNW 05:52:35 10° NNE visible
31 Oct 12.2 03:38:12 15° NE 03:38:12 15° NE 03:39:04 10° NE visible
31 Oct 11.2 05:18:57 22° NNW 05:18:57 22° NNW 05:22:06 10° NNE visible
31 Oct 11.7 07:01:32 10° NNW 07:03:13 11° N 07:04:53 10° N visible
01 Nov 11.4 04:49:19 21° N 04:49:19 21° N 04:51:36 10° NNE visible
01 Nov 11.7 06:30:05 10° NW 06:32:12 12° NNW 06:34:20 10° N visible
02 Nov 11.8 03:19:40 17° NNE 03:19:40 17° NNE 03:21:06 10° NNE visible
02 Nov 11.6 05:00:24 13° NNW 05:01:14 13° NNW 05:03:50 10° N visible
03 Nov 12.2 02:50:00 13° NNE 02:50:00 13° NNE 02:50:34 10° NNE visible
03 Nov 11.6 04:30:44 15° NNW 04:30:44 15° NNW 04:33:20 10° NNE visible
03 Nov 11.8 06:14:56 10° N 06:16:11 11° N 06:17:27 10° NNE visible
04 Nov 11.7 04:01:02 15° N 04:01:02 15° N 04:02:51 10° NNE visible
04 Nov 11.9 05:44:04 10° NNW 05:45:10 11° N 05:46:15 10° NNE visible
05 Nov 12.0 03:31:20 14° N 03:31:20 14° N 03:32:22 10° NNE visible
05 Nov 11.8 05:12:56 10° NNW 05:14:08 11° N 05:15:21 10° N visible
06 Nov 12.3 03:01:37 11° NNE 03:01:37 11° NNE 03:01:52 10° NNE visible
06 Nov 11.8 04:42:21 11° NNW 04:43:07 11° N 04:44:41 10° N visible
06 Nov 11.8 06:26:25 10° N 06:29:06 14° NNE 06:31:46 10° NE visible
07 Nov 11.9 04:12:38 12° N 04:12:38 12° N 04:14:07 10° N visible
07 Nov 11.8 05:55:55 10° N 05:58:07 12° NNE 06:00:19 10° NE visible
08 Nov 12.1 03:42:54 11° N 03:42:54 11° N 03:43:35 10° N visible
08 Nov 11.9 05:25:22 10° N 05:27:07 11° N 05:28:51 10° NNE visible
